GW3693 Weather Reports


time (UTC)temp
C
wind
direction
speed
KPH
gust
KPH
rain 1hr
cm
rain 24hr
cm
rain mn
cm
humidity
%
barometer
mb
20240614133502 26 58 0.0 1.6 0.00 0.00 0.00 72 1016.9
20240614133004 26 49 0.0 1.6 0.00 0.00 0.00 75 1016.8
20240614132502 25 49 0.0 1.6 0.00 0.00 0.00 76 1016.8
20240614132002 25 49 0.0 3.2 0.00 0.00 0.00 76 1016.7
20240614131504 25 49 0.0 3.2 0.00 0.00 0.00 79 1016.6
20240614131002 25 65 0.0 0.0 0.00 0.00 0.00 78 1016.5
20240614130502 24 65 0.0 0.0 0.00 0.00 0.00 82 1016.5
20240614130005 23 77 0.0 0.0 0.00 0.00 0.00 82 1016.4
20240614125502 23 102 0.0 0.0 0.00 0.00 0.00 82 1016.4
20240614125001 23 148 0.0 0.0 0.00 0.00 0.00 85 1016.3
20240614124503 22 148 0.0 0.0 0.00 0.00 0.00 86 1016.3
20240614124002 22 148 0.0 0.0 0.00 0.00 0.00 86 1016.3
20240614123502 22 148 0.0 0.0 0.00 0.00 0.00 87 1016.3
20240614123003 22 148 0.0 0.0 0.00 0.00 0.00 88 1016.4
20240614122503 21 162 0.0 0.0 0.00 0.00 0.00 89 1016.3
20240614122002 21 163 0.0 0.0 0.00 0.00 0.00 90 1016.4
20240614121503 20 163 0.0 0.0 0.00 0.00 0.00 90 1016.3
20240614121003 20 158 0.0 0.0 0.00 0.00 0.00 91 1016.3
20240614120505 20 134 0.0 0.0 0.00 0.00 0.00 91 1016.3
20240614120003 20 134 0.0 0.0 0.00 0.00 0.00 90 1016.4
20240614115502 20 134 0.0 0.0 0.00 0.00 0.00 90 1016.6
20240614115002 20 133 0.0 0.0 0.00 0.00 0.00 92 1016.6
20240614114507 19 134 0.0 0.0 0.00 0.00 0.00 93 1016.6
20240614114002 19 134 0.0 0.0 0.00 0.00 0.00 93 1016.5
20240614113507 19 134 0.0 1.6 0.00 0.00 0.00 92 1016.5
20240614113004 19 134 0.0 1.6 0.00 0.00 0.00 92 1016.5
20240614112504 19 129 0.0 1.6 0.00 0.00 0.00 92 1016.3
20240614112002 19 129 0.0 1.6 0.00 0.00 0.00 92 1016.4
20240614111505 19 57 0.0 0.0 0.00 0.00 0.00 92 1016.5
20240614111003 19 58 0.0 3.2 0.00 0.00 0.00 93 1016.6
20240614110503 18 58 0.0 3.2 0.00 0.00 0.00 94 1016.4
20240614110005 18 54 1.6 3.2 0.00 0.00 0.00 94 1016.3
20240614105503 18 82 0.0 0.0 0.00 0.00 0.00 93 1016.1
20240614105003 18 82 0.0 0.0 0.00 0.00 0.00 94 1016.1
20240614104504 18 82 0.0 0.0 0.00 0.00 0.00 93 1016.0
20240614104004 18 82 0.0 0.0 0.00 0.00 0.00 94 1016.0
20240614103505 18 82 0.0 0.0 0.00 0.00 0.00 94 1016.0
20240614103007 18 83 0.0 0.0 0.00 0.00 0.00 94 1015.8
20240614102503 18 107 0.0 0.0 0.00 0.00 0.00 95 1015.7
20240614102004 18 107 0.0 0.0 0.00 0.00 0.00 94 1015.8
20240614101511 18 107 0.0 0.0 0.00 0.00 0.00 94 1015.7
20240614101003 18 107 0.0 0.0 0.00 0.00 0.00 94 1015.7
20240614100505 18 107 0.0 0.0 0.00 0.00 0.00 94 1015.6
20240614100002 18 107 0.0 0.0 0.00 0.00 0.00 93 1015.6
20240614095502 18 107 0.0 0.0 0.00 0.00 0.00 93 1015.6
20240614095004 18 107 0.0 0.0 0.00 0.00 0.00 93 1015.6
20240614094504 18 107 0.0 0.0 0.00 0.00 0.00 93 1015.4
20240614094003 18 106 0.0 0.0 0.00 0.00 0.00 94 1015.5
20240614093503 18 108 0.0 0.0 0.00 0.00 0.00 94 1015.4
20240614093006 18 108 0.0 0.0 0.00 0.00 0.00 94 1015.4
20240614092502 18 108 0.0 0.0 0.00 0.00 0.00 94 1015.6
20240614092004 18 108 0.0 0.0 0.00 0.00 0.00 94 1015.6
20240614091509 18 108 0.0 0.0 0.00 0.00 0.00 94 1015.6
20240614091004 18 108 0.0 0.0 0.00 0.00 0.00 93 1015.5
20240614090503 18 96 0.0 0.0 0.00 0.00 0.00 93 1015.6
20240614090008 18 63 0.0 0.0 0.00 0.00 0.00 93 1015.7
20240614085504 18 63 0.0 0.0 0.00 0.00 0.00 93 1015.7
20240614085003 18 63 0.0 0.0 0.00 0.00 0.00 92 1015.8
20240614084503 18 63 0.0 0.0 0.00 0.00 0.00 92 1015.7
20240614084003 18 63 0.0 0.0 0.00 0.00 0.00 92 1015.7
20240614083503 18 63 0.0 0.0 0.00 0.00 0.00 91 1015.7
20240614083006 19 62 0.0 0.0 0.00 0.00 0.00 91 1015.8
20240614082503 19 60 0.0 0.0 0.00 0.00 0.00 91 1015.8
20240614082005 20 60 0.0 0.0 0.00 0.00 0.00 90 1015.7
20240614081509 20 59 0.0 0.0 0.00 0.00 0.00 91 1015.8
20240614081003 20 59 0.0 0.0 0.00 0.00 0.00 89 1015.7
20240614080504 20 59 0.0 0.0 0.00 0.00 0.00 89 1015.7
20240614080013 20 59 0.0 0.0 0.00 0.00 0.00 89 1015.7
20240614075505 20 59 0.0 0.0 0.00 0.00 0.00 90 1015.6
20240614075005 20 59 0.0 0.0 0.00 0.00 0.00 90 1015.6
20240614074511 20 59 0.0 0.0 0.00 0.00 0.00 88 1015.6
20240614074006 20 59 0.0 0.0 0.00 0.00 0.00 88 1015.5
20240614073506 20 59 0.0 0.0 0.00 0.00 0.00 88 1015.6
20240614073003 20 59 0.0 0.0 0.00 0.00 0.00 88 1015.5
20240614072503 20 59 0.0 0.0 0.00 0.00 0.00 88 1015.5
20240614072003 20 59 0.0 0.0 0.00 0.00 0.00 88 1015.6
20240614071503 20 59 0.0 0.0 0.00 0.00 0.00 89 1015.7
20240614071003 20 59 0.0 0.0 0.00 0.00 0.00 89 1015.8
20240614070502 20 59 0.0 0.0 0.00 0.00 0.00 90 1015.7
20240614070005 20 59 0.0 0.0 0.00 0.00 0.00 90 1015.5
20240614065503 20 59 0.0 0.0 0.00 0.00 0.00 90 1015.4
20240614065002 19 59 0.0 0.0 0.00 0.00 0.00 91 1015.5
20240614064506 19 59 0.0 0.0 0.00 0.00 0.00 90 1015.5
20240614064002 20 59 0.0 0.0 0.00 0.00 0.00 90 1015.4
20240614063502 20 59 0.0 0.0 0.00 0.00 0.00 89 1015.5
20240614063003 20 59 0.0 0.0 0.00 0.00 0.00 89 1015.6
20240614062502 20 59 0.0 0.0 0.00 0.00 0.00 88 1015.7
20240614062002 20 59 0.0 0.0 0.00 0.00 0.00 88 1015.7
20240614061501 20 59 0.0 0.0 0.00 0.00 0.00 87 1015.7
20240614061003 21 59 0.0 0.0 0.00 0.00 0.00 86 1015.7
20240614060502 21 59 0.0 0.0 0.00 0.00 0.00 85 1015.7
20240614060003 21 59 0.0 0.0 0.00 0.00 0.00 85 1015.7
20240614055505 21 59 0.0 0.0 0.00 0.00 0.00 86 1015.8
20240614055004 21 59 0.0 0.0 0.00 0.00 0.00 88 1015.8
20240614054502 20 59 0.0 0.0 0.00 0.00 0.00 87 1015.7
20240614054003 21 59 0.0 0.0 0.00 0.00 0.00 86 1015.7
20240614053503 21 59 0.0 0.0 0.00 0.00 0.00 85 1015.7
20240614053004 21 59 0.0 0.0 0.00 0.00 0.00 84 1015.6
20240614052504 21 59 0.0 0.0 0.00 0.00 0.00 85 1015.5
20240614052002 21 59 0.0 1.6 0.00 0.00 0.00 86 1015.5
20240614051505 21 59 0.0 3.2 0.00 0.00 0.00 87 1015.6
20240614051002 21 59 1.6 3.2 0.00 0.00 0.00 86 1015.7
20240614050503 21 76 1.6 3.2 0.00 0.00 0.00 86 1015.5
20240614050002 20 77 0.0 0.0 0.00 0.00 0.00 87 1015.3
20240614045501 20 77 0.0 0.0 0.00 0.00 0.00 87 1015.2
20240614045005 20 77 0.0 0.0 0.00 0.00 0.00 86 1015.1
20240614044505 20 77 0.0 0.0 0.00 0.00 0.00 87 1015.1
20240614044002 20 77 0.0 0.0 0.00 0.00 0.00 87 1014.9
20240614043502 20 77 0.0 0.0 0.00 0.00 0.00 86 1015.0
20240614043002 20 77 0.0 0.0 0.00 0.00 0.00 86 1015.1
20240614042503 20 77 0.0 0.0 0.00 0.00 0.00 85 1015.1
20240614042004 20 77 0.0 0.0 0.00 0.00 0.00 85 1015.1
20240614041512 21 77 0.0 0.0 0.00 0.00 0.00 85 1015.1
20240614041004 21 77 0.0 0.0 0.00 0.00 0.00 85 1015.2
20240614040502 21 77 0.0 0.0 0.00 0.00 0.00 84 1015.3
20240614040004 21 77 0.0 0.0 0.00 0.00 0.00 83 1015.2
20240614035502 21 77 0.0 0.0 0.00 0.00 0.00 83 1015.2
20240614035002 21 77 0.0 0.0 0.00 0.00 0.00 83 1015.1
20240614034502 21 77 0.0 0.0 0.00 0.00 0.00 82 1015.1
20240614034004 22 77 0.0 0.0 0.00 0.00 0.00 81 1015.1
20240614033502 22 77 0.0 0.0 0.00 0.00 0.00 80 1015.1
20240614033003 22 77 0.0 0.0 0.00 0.00 0.00 79 1015.1
20240614032503 22 77 0.0 0.0 0.00 0.00 0.00 79 1015.0
20240614032003 22 77 0.0 0.0 0.00 0.00 0.00 78 1014.9
20240614031503 22 77 0.0 0.0 0.00 0.00 0.00 78 1014.9
20240614031002 22 77 0.0 0.0 0.00 0.00 0.00 78 1014.7
20240614030502 22 77 0.0 0.0 0.00 0.00 0.00 78 1014.7
20240614030003 22 77 0.0 0.0 0.00 0.00 0.00 79 1014.7
20240614025503 22 77 0.0 0.0 0.00 0.00 0.00 78 1014.6
20240614025003 22 77 0.0 0.0 0.00 0.00 0.00 77 1014.6
20240614024518 22 77 0.0 0.0 0.00 0.00 0.00 77 1014.6
20240614024003 22 77 0.0 0.0 0.00 0.00 0.00 75 1014.6
20240614023502 23 77 0.0 0.0 0.00 0.00 0.00 75 1014.5
20240614023008 23 77 0.0 0.0 0.00 0.00 0.00 74 1014.6
20240614022502 23 77 0.0 0.0 0.00 0.00 0.00 74 1014.6
20240614022002 23 77 0.0 1.6 0.00 0.00 0.00 72 1014.6
20240614021503 23 77 0.0 1.6 0.00 0.00 0.00 73 1014.6
20240614021003 23 78 0.0 0.0 0.00 0.00 0.00 74 1014.5
20240614020502 23 78 0.0 0.0 0.00 0.00 0.00 72 1014.4
20240614020004 24 77 0.0 1.6 0.00 0.00 0.00 72 1014.3
20240614015504 24 78 0.0 1.6 0.00 0.00 0.00 72 1014.2
20240614015004 23 126 0.0 0.0 0.00 0.00 0.00 72 1014.2
20240614014506 24 127 0.0 0.0 0.00 0.00 0.00 71 1014.2
20240614014004 24 127 0.0 0.0 0.00 0.00 0.00 70 1014.2
20240614013503 25 127 0.0 0.0 0.00 0.00 0.00 68 1014.3
20240614013018 25 126 0.0 0.0 0.00 0.00 0.00 69 1014.3
20240614012503 25 126 0.0 0.0 0.00 0.00 0.00 66 1014.2
20240614012003 25 181 0.0 0.0 0.00 0.00 0.00 66 1014.1
20240614011511 25 181 0.0 0.0 0.00 0.00 0.00 64 1014.1
20240614011010 26 181 0.0 0.0 0.00 0.00 0.00 63 1014.1
20240614010505 26 181 0.0 0.0 0.00 0.00 0.00 63 1014.1
20240614010003 26 181 0.0 0.0 0.00 0.00 0.00 62 1014.2
20240614005503 26 181 0.0 0.0 0.00 0.00 0.00 60 1014.2
20240614005002 27 181 0.0 0.0 0.00 0.00 0.00 58 1014.2
20240614004515 27 181 0.0 0.0 0.00 0.00 0.00 58 1014.3
20240614004003 27 181 0.0 0.0 0.00 0.00 0.00 57 1014.3
20240614003504 27 181 0.0 0.0 0.00 0.00 0.00 57 1014.4
20240614003004 28 181 0.0 0.0 0.00 0.00 0.00 56 1014.5
20240614002505 28 181 0.0 0.0 0.00 0.00 0.00 55 1014.5
20240614002004 28 181 0.0 0.0 0.00 0.00 0.00 53 1014.6
20240614001515 28 181 0.0 3.2 0.00 0.00 0.00 53 1014.6
20240614001003 29 182 0.0 3.2 0.00 0.00 0.00 52 1014.6
20240614000503 29 195 0.0 4.8 0.00 0.00 0.00 51 1014.7
20240614000007 29 161 1.6 4.8 0.00 0.00 0.00 50 1014.6
20240613235504 29 179 3.2 4.8 0.00 0.00 0.00 52 1014.7
20240613235007 29 172 1.6 4.8 0.00 0.00 0.00 51 1014.7
20240613234546 29 176 1.6 4.8 0.00 0.00 0.00 49 1014.7
20240613234001 29 170 3.2 6.4 0.00 0.00 0.00 50 1014.6
20240613233502 30 183 0.0 6.4 0.00 0.00 0.00 52 1014.7
20240613233003 30 175 0.0 8.0 0.00 0.00 0.00 50 1014.7
20240613232502 30 67 0.0 8.0 0.00 0.00 0.00 52 1014.8
20240613232003 30 143 0.0 4.8 0.00 0.00 0.00 50 1014.8
20240613231505 30 268 0.0 4.8 0.00 0.00 0.00 52 1014.7
20240613231003 30 188 1.6 4.8 0.00 0.00 0.00 49 1014.7
20240613230503 30 189 1.6 3.2 0.00 0.00 0.00 48 1014.7
20240613230007 30 142 0.0 3.2 0.00 0.00 0.00 46 1014.6
20240613225503 30 72 0.0 3.2 0.00 0.00 0.00 46 1014.7
20240613225004 30 28 0.0 3.2 0.00 0.00 0.00 48 1014.6
20240613224509 30 32 1.6 3.2 0.00 0.00 0.00 45 1014.5
20240613224003 30 152 0.0 6.4 0.00 0.00 0.00 44 1014.5
20240613223505 31 172 0.0 6.4 0.00 0.00 0.00 46 1014.6
20240613223010 31 184 4.8 6.4 0.00 0.00 0.00 46 1014.6
20240613222501 31 205 1.6 4.8 0.00 0.00 0.00 48 1014.6
20240613222006 31 154 0.0 6.4 0.00 0.00 0.00 44 1014.7
20240613221503 32 179 4.8 8.0 0.00 0.00 0.00 43 1014.7
20240613221003 32 145 1.6 8.0 0.00 0.00 0.00 43 1014.7
20240613220502 32 149 0.0 6.4 0.00 0.00 0.00 43 1014.9
20240613220006 32 151 0.0 3.2 0.00 0.00 0.00 41 1014.8
20240613215504 32 230 1.6 3.2 0.00 0.00 0.00 44 1015.0
20240613215003 32 283 0.0 3.2 0.00 0.00 0.00 43 1015.0
20240613214506 32 233 1.6 9.7 0.00 0.00 0.00 43 1015.0
20240613214004 33 170 4.8 9.7 0.00 0.00 0.00 39 1015.0
20240613213503 33 179 1.6 4.8 0.00 0.00 0.00 38 1015.0
20240613213009 33 159 1.6 4.8 0.00 0.00 0.00 41 1015.0
20240613212503 32 156 1.6 6.4 0.00 0.00 0.00 45 1015.0
20240613212004 31 198 1.6 11.3 0.00 0.00 0.00 43 1015.0
20240613211517 32 172 6.4 11.3 0.00 0.00 0.00 42 1015.0
20240613211007 32 168 4.8 8.0 0.00 0.00 0.00 43 1015.1
20240613210502 33 236 1.6 6.4 0.00 0.00 0.00 43 1015.2
20240613210002 33 24 0.0 8.0 0.00 0.00 0.00 41 1015.2
20240613205503 33 164 3.2 8.0 0.00 0.00 0.00 42 1015.2
20240613205002 33 148 4.8 12.9 0.00 0.00 0.00 43 1015.3
20240613204501 33 171 4.8 12.9 0.00 0.00 0.00 45 1015.3
20240613204003 32 162 1.6 4.8 0.00 0.00 0.00 44 1015.3
20240613203502 32 58 1.6 6.4 0.00 0.00 0.00 42 1015.3
20240613203002 32 153 3.2 6.4 0.00 0.00 0.00 39 1015.4
20240613202502 32 211 1.6 9.7 0.00 0.00 0.00 40 1015.4
20240613202003 31 184 6.4 9.7 0.00 0.00 0.00 42 1015.4
20240613201503 31 174 3.2 8.0 0.00 0.00 0.00 45 1015.5
20240613201003 31 145 3.2 8.0 0.00 0.00 0.00 47 1015.5
20240613200503 31 42 1.6 8.0 0.00 0.00 0.00 51 1015.5
20240613200001 31 60 4.8 9.7 0.00 0.00 0.00 45 1015.5
20240613195502 32 17 1.6 12.9 0.00 0.00 0.00 44 1015.7
20240613195003 32 151 4.8 12.9 0.00 0.00 0.00 43 1015.6
20240613194511 32 182 6.4 12.9 0.00 0.00 0.00 44 1015.6
20240613194003 33 140 4.8 11.3 0.00 0.00 0.00 43 1015.7
20240613193503 32 123 4.8 11.3 0.00 0.00 0.00 44 1015.7
20240613193009 32 250 3.2 6.4 0.00 0.00 0.00 43 1015.7
20240613192502 32 175 3.2 9.7 0.00 0.00 0.00 46 1015.7
20240613192002 32 356 3.2 12.9 0.00 0.00 0.00 45 1015.7
20240613191503 32 163 3.2 12.9 0.00 0.00 0.00 47 1015.7
20240613191002 32 193 4.8 9.7 0.00 0.00 0.00 45 1015.7
20240613190502 32 137 4.8 9.7 0.00 0.00 0.00 47 1015.7
20240613190004 32 148 3.2 8.0 0.00 0.00 0.00 47 1015.7
20240613185504 31 41 1.6 6.4 0.00 0.00 0.00 50 1015.7
20240613185003 31 10 1.6 6.4 0.00 0.00 0.00 46 1015.8
20240613184511 31 143 3.2 6.4 0.00 0.00 0.00 48 1015.9
20240613184003 32 136 3.2 8.0 0.00 0.00 0.00 46 1015.8
20240613183503 32 142 1.6 8.0 0.00 0.00 0.00 47 1015.9
20240613183016 31 13 4.8 8.0 0.00 0.00 0.00 49 1015.9
20240613182503 31 305 3.2 8.0 0.00 0.00 0.00 49 1015.8
20240613182004 31 237 4.8 8.0 0.00 0.00 0.00 48 1015.9
20240613181506 32 207 0.0 8.0 0.00 0.00 0.00 50 1016.0
20240613181004 31 169 4.8 8.0 0.00 0.00 0.00 49 1016.0
20240613180506 31 25 1.6 11.3 0.00 0.00 0.00 54 1016.0
20240613180007 31 26 3.2 11.3 0.00 0.00 0.00 50 1016.0
20240613175502 31 140 1.6 6.4 0.00 0.00 0.00 48 1016.1
20240613175003 31 4 1.6 8.0 0.00 0.00 0.00 51 1016.1
20240613174503 31 64 1.6 8.0 0.00 0.00 0.00 53 1016.1
20240613174003 30 164 3.2 6.4 0.00 0.00 0.00 50 1016.1
20240613173503 30 269 0.0 6.4 0.00 0.00 0.00 50 1016.1
20240613173008 30 60 1.6 6.4 0.00 0.00 0.00 55 1016.1
20240613172503 30 212 0.0 6.4 0.00 0.00 0.00 56 1016.1
20240613172003 29 158 1.6 6.4 0.00 0.00 0.00 52 1016.1
20240613171503 29 53 3.2 9.7 0.00 0.00 0.00 54 1016.1
20240613171004 29 67 6.4 9.7 0.00 0.00 0.00 52 1016.1
20240613170505 30 15 0.0 8.0 0.00 0.00 0.00 50 1016.1
20240613170008 30 179 3.2 8.0 0.00 0.00 0.00 49 1016.0
20240613165504 29 188 3.2 6.4 0.00 0.00 0.00 54 1016.1
20240613165007 30 294 1.6 6.4 0.00 0.00 0.00 52 1016.1
20240613164512 29 160 1.6 6.4 0.00 0.00 0.00 51 1016.2
20240613164002 28 322 1.6 9.7 0.00 0.00 0.00 56 1016.1
20240613163502 28 63 4.8 9.7 0.00 0.00 0.00 54 1016.0
20240613163003 28 65 4.8 11.3 0.00 0.00 0.00 54 1016.1
20240613162503 28 60 4.8 11.3 0.00 0.00 0.00 59 1016.0
20240613162005 28 54 3.2 9.7 0.00 0.00 0.00 53 1016.2
20240613161507 27 40 4.8 9.7 0.00 0.00 0.00 56 1016.3
20240613161003 27 34 6.4 12.9 0.00 0.00 0.00 54 1016.3
20240613160503 27 67 8.0 12.9 0.00 0.00 0.00 54 1016.3
20240613160010 28 60 4.8 11.3 0.00 0.00 0.00 56 1016.4
20240613155505 28 54 4.8 11.3 0.00 0.00 0.00 57 1016.3
20240613155005 28 66 1.6 9.7 0.00 0.00 0.00 55 1016.4
20240613154510 28 41 0.0 4.8 0.00 0.00 0.00 57 1016.4
20240613154007 28 98 0.0 8.0 0.00 0.00 0.00 57 1016.4
20240613153504 28 53 1.6 8.0 0.00 0.00 0.00 55 1016.4
20240613153010 28 114 0.0 8.0 0.00 0.00 0.00 58 1016.4
20240613152508 28 157 0.0 8.0 0.00 0.00 0.00 56 1016.5
20240613152004 28 65 3.2 8.0 0.00 0.00 0.00 56 1016.5
20240613151517 28 67 1.6 6.4 0.00 0.00 0.00 58 1016.3
20240613151003 28 147 3.2 6.4 0.00 0.00 0.00 54 1016.4
20240613150504 28 165 3.2 6.4 0.00 0.00 0.00 56 1016.3
20240613150009 28 98 0.0 6.4 0.00 0.00 0.00 61 1016.2
20240613145505 27 24 1.6 6.4 0.00 0.00 0.00 62 1016.3
20240613145004 27 43 1.6 6.4 0.00 0.00 0.00 63 1016.3
20240613144508 27 223 3.2 6.4 0.00 0.00 0.00 58 1016.3
20240613144006 27 120 1.6 9.7 0.00 0.00 0.00 59 1016.3
20240613143505 28 135 4.8 9.7 0.00 0.00 0.00 58 1016.4
20240613143010 28 149 0.0 6.4 0.00 0.00 0.00 59 1016.4
20240613142503 27 169 1.6 6.4 0.00 0.00 0.00 60 1016.3
20240613142005 27 105 0.0 4.8 0.00 0.00 0.00 66 1016.3
20240613141512 27 139 0.0 4.8 0.00 0.00 0.00 64 1016.4
20240613141003 27 146 1.6 4.8 0.00 0.00 0.00 63 1016.4
20240613140503 27 147 1.6 4.8 0.00 0.00 0.00 63 1016.4
20240613140004 26 89 0.0 3.2 0.00 0.00 0.00 65 1016.4
20240613135504 26 160 1.6 6.4 0.00 0.00 0.00 65 1016.4
20240613135006 26 160 3.2 6.4 0.00 0.00 0.00 66 1016.3
20240613134507 26 134 0.0 4.8 0.00 0.00 0.00 69 1016.3
20240613134002 26 67 1.6 4.8 0.00 0.00 0.00 68 1016.3